Location: ????????
(54.9045°N, 39.1041°E)
Time: 21:07:22
(UTC+00:00)

Cosmos 1140 Rocket - Visible Passes

Search period start: 19 September 2024 00:00
Search period end: 29 September 2024 00:00
Orbit: 741 x 765 km, 74.1° (Epoch: 19 September)

Date Brightness Start Highest point End Pass type
(mag) Time Alt. Az. Time Alt. Az. Time Alt. Az.
19 Sep 4.6 00:44:36 25° WNW 00:46:05 29° NW 00:50:37 10° NNE visible
19 Sep 5.7 02:27:50 10° NW 02:29:40 12° NNW 02:31:29 10° N visible
19 Sep 4.8 22:23:53 33° ENE 22:23:53 33° ENE 22:27:15 10° NE visible
20 Sep 4.1 00:03:50 42° WNW 00:04:08 42° NW 00:09:06 10° NNE visible
20 Sep 5.6 01:44:29 10° WNW 01:47:20 15° NNW 01:50:13 10° N visible
20 Sep 5.6 21:43:06 20° ENE 21:43:06 20° ENE 21:45:14 10° NE visible
20 Sep 3.9 23:23:03 58° NNW 23:23:03 58° NNW 23:27:32 10° NNE visible
21 Sep 5.3 01:02:59 15° WNW 01:05:06 19° NW 01:08:49 10° N visible
21 Sep 6.1 21:02:18 11° ENE 21:02:18 11° ENE 21:02:47 10° ENE visible
21 Sep 4.4 22:42:15 46° NE 22:42:15 46° NE 22:45:53 10° NNE visible
22 Sep 4.8 00:22:11 25° WNW 00:23:00 26° NW 00:27:22 10° NNE visible
22 Sep 5.8 02:05:19 10° NNW 02:06:43 11° NNW 02:08:06 10° N visible
22 Sep 5.1 22:01:25 29° NE 22:01:25 29° NE 22:04:07 10° NE visible
22 Sep 4.5 23:41:22 36° NW 23:41:22 36° NW 23:45:52 10° NNE visible
23 Sep 5.7 01:21:49 10° NW 01:24:21 13° NNW 01:26:54 10° N visible
23 Sep 5.7 21:20:35 18° NE 21:20:35 18° NE 21:22:11 10° NE visible
23 Sep 4.5 23:00:32 42° N 23:00:32 42° N 23:04:19 10° NNE visible
24 Sep 5.4 00:40:28 15° NW 00:42:05 17° NNW 00:45:32 10° N visible
24 Sep 6.1 20:39:44 11° NE 20:39:44 11° NE 20:39:55 10° NE visible
24 Sep 4.9 22:19:41 35° NNE 22:19:41 35° NNE 22:22:40 10° NNE visible
24 Sep 5.1 23:59:37 23° NW 23:59:55 23° NW 00:04:05 10° NNE visible
25 Sep 5.9 01:42:54 10° NNW 01:43:45 10° NNW 01:44:36 10° N visible
25 Sep 5.4 21:38:49 24° NE 21:38:49 24° NE 21:40:57 10° NNE visible
25 Sep 4.9 23:18:45 31° NNW 23:18:45 31° NNW 23:22:36 10° NNE visible
26 Sep 5.8 00:59:10 10° NW 01:01:21 12° NNW 01:03:34 10° N visible
26 Sep 5.9 20:57:57 16° NE 20:57:57 16° NE 20:59:05 10° NE visible
26 Sep 5.0 22:37:53 33° N 22:37:53 33° N 22:41:03 10° NNE visible
27 Sep 5.5 00:17:49 15° NW 00:19:02 16° NNW 00:22:13 10° N visible
27 Sep 5.3 21:57:00 28° NNE 21:57:00 28° NNE 21:59:26 10° NNE visible
27 Sep 5.3 23:36:56 21° NW 23:36:56 21° NW 23:40:47 10° NNE visible
28 Sep 5.7 21:16:06 20° NNE 21:16:06 20° NNE 21:17:44 10° NNE visible
28 Sep 5.2 22:56:02 26° NNW 22:56:02 26° NNW 22:59:18 10° NNE visible
